This demonstration page uses our WeatherBlox Daily Observations layout. Learn more.

Left ArrowRight Arrow

44.8408, -93.29828

Hourly Observations for March 28, 2022

Temp ( °F °C ) Dew Point ( °F °C ) Humidity (%) Winds ( mph kmh ) Pressure ( in mb ) Visibility ( mi km ) Precip ( " mm )
12:53 am 00:53 Clear 22 -5.6 -2 -18.9 35 35 N 6 9 30.32 1027 10 16 0.00 0.00
1:53 am 01:53 Clear 21 -6.1 -2 -18.9 36 36 NNE 5 7 30.32 1027 10 16 0.00 0.00
2:53 am 02:53 Clear 21 -6.1 -4 -20 33 33 NNE 3 6 30.32 1027 10 16 0.00 0.00
3:53 am 03:53 Clear 20 -6.7 -4 -20 34 34 NNE 3 6 30.32 1027 10 16 0.00 0.00
4:53 am 04:53 Clear 20 -6.7 -3 -19.4 36 36 Calm 30.33 1027 10 16 0.00 0.00
5:53 am 05:53 Clear 20 -6.7 -2 -18.9 38 38 Calm 30.33 1027 10 16 0.00 0.00
6:53 am 06:53 Mostly Clear 19 -7.2 1 -17.2 45 45 E 7 11 30.34 1027 10 16 0.00 0.00
7:53 am 07:53 Partly Cloudy 21 -6.1 0 -17.8 39 39 ESE 9 15 30.35 1028 10 16 0.00 0.00
8:53 am 08:53 Mostly Cloudy 24 -4.4 0 -17.8 35 35 ESE 10 17 30.35 1028 10 16 0.00 0.00
9:53 am 09:53 Partly Cloudy 27 -2.8 -2 -18.9 28 28 ESE 10 17 30.35 1028 10 16 0.00 0.00
10:53 am 10:53 Partly Cloudy 29 -1.7 -3 -19.4 25 25 ESE 7 11 30.35 1028 10 16 0.00 0.00
11:53 am 11:53 Partly Cloudy 32 0 -1 -18.3 24 24 SSE 8 13 30.33 1027 10 16 0.00 0.00
12:53 pm 12:53 Mostly Cloudy 33 0.6 1 -17.2 25 25 S 8 13 30.31 1027 10 16 0.00 0.00
1:53 pm 13:53 Mostly Cloudy 36 2.2 2 -16.7 23 23 SSE 12 19 30.29 1026 10 16 0.00 0.00
2:53 pm 14:53 Mostly Cloudy 37 2.8 4 -15.6 25 25 SSE 13 20 30.26 1025 10 16 0.00 0.00
3:53 pm 15:53 Mostly Cloudy 37 2.8 6 -14.4 27 27 SE 15 24 30.23 1024 10 16 0.00 0.00
4:53 pm 16:53 Mostly Cloudy 38 3.3 7 -13.9 27 27 SSE 13 20 30.21 1023 10 16 0.00 0.00
5:53 pm 17:53 Mostly Cloudy 37 2.8 7 -13.9 28 28 SE 10 17 30.20 1023 10 16 0.00 0.00
6:53 pm 18:53 Mostly Cloudy 36 2.2 9 -12.8 32 32 SE 12 19 30.19 1023 10 16 0.00 0.00
7:53 pm 19:53 Mostly Cloudy 36 2.2 9 -12.8 32 32 SE 13 20 30.17 1022 10 16 0.00 0.00
8:53 pm 20:53 Mostly Cloudy 35 1.7 7 -13.9 31 31 ESE 13 20 30.16 1021 10 16 0.00 0.00
9:53 pm 21:53 Mostly Cloudy 35 1.7 7 -13.9 31 31 ESE 14 22 30.16 1021 10 16 0.00 0.00
10:53 pm 22:53 Mostly Cloudy 34 1.1 8 -13.3 34 34 SE 12 19 30.15 1021 10 16 0.00 0.00
11:53 pm 23:53 Cloudy 35 1.7 9 -12.8 34 34 SE 14 22 30.15 1021 10 16 0.00 0.00

Powered by AerisWeather